Regional Weather Roundup
Issued by NWS Northern Indiana

Home | Current Version | Previous Version | Text Only | Print | Product List | Glossary Off
Versions: 1 2 3 4 5 6 7 8 9 10 11 12 13 14 15 16 17 18 19 20 21 22 23 24 25 26 27 28 29 30 31 32 33 34 35 36 37 38 39 40 41 42 43 44 45 46 47 48 49 50

000
ASUS43 KIWX 251900
RWRIWX

KIWX WEATHER ROUNDUP
NATIONAL WEATHER SERVICE NORTHERN INDIANA
200 PM EST THU DEC 25 2014

NOTE: "FAIR" INDICATES FEW OR NO CLOUDS BELOW 12,000 FEET WITH NO
SIGNIFICANT WEATHER AND/OR OBSTRUCTIONS TO VISIBILITY.

* THESE STATIONS ARE NOT UNDER NWS QUALITY CONTROL. THEY ALSO MAY NOT
  REPORT WEATHER SUCH AS PRECIPITATION OR FOG.

INZ001>027-252000-
NORTHERN INDIANA

CITY           SKY/WX    TMP DP  RH WIND       PRES   REMARKS
SOUTH BEND     CLOUDY    38  30  73 SW15      29.99
GOSHEN         CLOUDY    37  30  75 SW18      30.00S
WARSAW*        CLOUDY    36  30  80 SW12G24   30.01F
ANGOLA*        CLOUDY    36  30  80 W15       29.99R
FORT WAYNE     CLOUDY    37  30  75 W21G28    30.04R

$$
INZ028>050-252000-
CENTRAL INDIANA

CITY           SKY/WX    TMP DP  RH WIND       PRES   REMARKS
LAFAYETTE      CLOUDY    39  31  72 SW15      30.04S
KOKOMO*        CLOUDY    37  30  75 SW16      30.05R
MUNCIE*        CLOUDY    37  30  75 W15G23    30.06R
INDIANAPOLIS   PTSUNNY   39  31  72 SW14      30.05F

$$
MIZ043>046-050>051-056>058-064>065-071>073-077>080-252000-
SOUTHWEST LOWER MICHIGAN

CITY           SKY/WX    TMP DP  RH WIND       PRES   REMARKS
BATTLE CREEK   CLOUDY    36  29  75 SW20      29.96S
BENTON HARBOR  CLOUDY    36  30  79 SW20G28   29.98R
COLDWATER*     CLOUDY    35  30  83 MISG      29.98R
HILLSDALE*     CLOUDY    35  31  85 W16G23    29.98R WCI  26
HOLLAND        CLOUDY    39  29  67 SW16G25   29.95R
GRAND RAPIDS   CLOUDY    36  30  79 SW13G23   29.94R
KALAMAZOO      CLOUDY    36  29  75 SW13      29.96F
STURGIS*       CLOUDY    36  30  80 SW15      29.98S
THREE RIVERS*  CLOUDY    36  30  79 SW14G20   29.97F

$$
OHZ001>008-015>018-024>025-252000-
NORTHWEST OHIO

CITY           SKY/WX    TMP DP  RH WIND       PRES   REMARKS
DEFIANCE       CLOUDY    38  30  73 SW13G21   30.03R
FINDLAY        CLOUDY    39  31  72 SW18G29   30.02F
TOLEDO EXPRESS CLOUDY    37  29  72 W14       30.01R
TOLEDO METCALF CLOUDY    38  29  70 SW18      30.03R
LIMA           CLOUDY    39  30  70 SW17      30.04S

$$
AND FOR LAKE MICHIGAN COASTAL AND OPEN LAKE BUOY OBSERVATIONS

STATION/POSITION TEMP    WIND        PRES    VSBY  WAVE
                 AIR SEA DIR/SP/G                  HT/PER
                 (F)     (DEG/KT/KT) (MB)    (MI)  (FT/S)
CALUMET HARBOR    38     200/ 15/ 21 1013.6F
MICHIGAN CITY     36     200/ 17/ 22   N/A
SAINT JOSEPH      37     190/ 20     1015.2R

$$
&&



USA.gov is the U.S. government's official web portal to all federal, state and local government web resources and services.